,,,PA_Meas_PMT16A,,PR_Meas_QMR101_102,,RH_Meas_QMH101,,SR_Meas_QMS101,,TA_Meas_QMH101,,GenWind,,GenWind,
date,time,status,PA,status,PR,status,RH,status,SR,status,TA,status,DirAvg,status,SpdAvg,
2010-05-13, 00:00:04,VALID,998.18,VALID,0,VALID,93.44,VALID,0,VALID,23.9549,VALID,103,VALID,0.517187,
2010-05-13, 00:01:05,VALID,998.136,VALID,0,VALID,93.4705,VALID,0,VALID,23.9531,VALID,22,VALID,0.922266,
2010-05-13, 00:02:05,VALID,998.13,VALID,0,VALID,93.501,VALID,0,VALID,23.9921,VALID,341,VALID,0.932031,
2010-05-13, 00:03:05,VALID,998.138,VALID,0,VALID,93.4857,VALID,0,VALID,23.9939,VALID,338,VALID,0.796094,
2010-05-13, 00:04:05,VALID,998.084,VALID,0,VALID,93.4934,VALID,0,VALID,24.0134,VALID,338,VALID,0.776563,
2010-05-13, 00:05:05,VALID,998.121,VALID,0,VALID,93.4857,VALID,0,VALID,23.9921,VALID,338,VALID,0.785937,
2010-05-13, 00:06:05,VALID,998.114,VALID,0,VALID,93.4934,VALID,0,VALID,24.072,VALID,338,VALID,0.638672,
2010-05-13, 00:07:05,VALID,998.117,VALID,0,VALID,93.5239,VALID,0,VALID,24.0506,VALID,322,VALID,0.577344,
2010-05-13, 00:08:05,VALID,998.094,VALID,0,VALID,93.5391,VALID,0,VALID,24.0701,VALID,328,VALID,0.594531,
2010-05-13, 00:09:05,VALID,998.079,VALID,0,VALID,93.356,VALID,0,VALID,24.0116,VALID,21,VALID,0.943359,
2010-05-13, 00:10:05,VALID,998.083,VALID,0,VALID,93.4171,VALID,0,VALID,23.9921,VALID,30,VALID,0.817969,
2010-05-13, 00:11:05,VALID,998.089,VALID,0,VALID,93.3789,VALID,0,VALID,23.9939,VALID,30,VALID,0.358594,
2010-05-13, 00:12:05,VALID,998.081,VALID,0,VALID,93.3637,VALID,0,VALID,24.0134,VALID,30,VALID,0.65,
2010-05-13, 00:13:05,VALID,998.076,VALID,0,VALID,93.4476,VALID,0,VALID,23.9726,VALID,30,VALID,0.809766,
2010-05-13, 00:14:05,VALID,998.052,VALID,0,VALID,93.4094,VALID,0,VALID,23.9939,VALID,32,VALID,0.485547,
2010-05-13, 00:15:05,VALID,998.073,VALID,0,VALID,93.44,VALID,0,VALID,24.0134,VALID,32,VALID,0.522266,
2010-05-13, 00:16:05,VALID,998.059,VALID,0,VALID,93.4247,VALID,0,VALID,24.0329,VALID,32,VALID,0.462891,
2010-05-13, 00:17:05,VALID,998.024,VALID,0,VALID,93.4476,VALID,0,VALID,24.0116,VALID,32,VALID,0.574219,
2010-05-13, 00:18:05,VALID,998.061,VALID,0,VALID,93.3942,VALID,0,VALID,24.0116,VALID,32,VALID,0.813672,
2010-05-13, 00:19:05,VALID,998.057,VALID,0,VALID,93.3637,VALID,0,VALID,24.0525,VALID,32,VALID,0.501562,
2010-05-13, 00:20:05,VALID,998.022,VALID,0,VALID,93.3408,VALID,0,VALID,24.0311,VALID,32,VALID,0.0496094,
2010-05-13, 00:21:05,VALID,998.012,VALID,0,VALID,93.295,VALID,0,VALID,24.0329,VALID,32,VALID,0,
2010-05-13, 00:22:05,VALID,997.968,VALID,0,VALID,93.234,VALID,0,VALID,24.0134,VALID,32,VALID,0,
2010-05-13, 00:23:05,VALID,997.969,VALID,0,VALID,93.2111,VALID,0,VALID,23.9939,VALID,32,VALID,0,
2010-05-13, 00:24:05,VALID,997.965,VALID,0,VALID,93.1958,VALID,0,VALID,23.9726,VALID,59,VALID,0.448828,
2010-05-13, 00:25:05,VALID,997.976,VALID,0,VALID,93.2416,VALID,0,VALID,23.9921,VALID,139,VALID,0.932031,
2010-05-13, 00:26:05,VALID,997.938,VALID,0,VALID,93.2492,VALID,0,VALID,24.0134,VALID,163,VALID,1.0875,
2010-05-13, 00:27:05,VALID,997.904,VALID,0,VALID,93.295,VALID,0,VALID,24.0525,VALID,161,VALID,1.33242,
2010-05-13, 00:28:05,VALID,997.883,VALID,0,VALID,93.356,VALID,0,VALID,24.0506,VALID,154,VALID,0.805469,
2010-05-13, 00:29:05,VALID,997.87,VALID,0,VALID,93.356,VALID,0,VALID,24.111,VALID,154,VALID,0.532812,
2010-05-13, 00:30:05,VALID,997.84,VALID,0,VALID,93.356,VALID,0,VALID,24.111,VALID,154,VALID,0.469922,
2010-05-13, 00:31:05,VALID,997.828,VALID,0,VALID,93.356,VALID,0,VALID,24.1305,VALID,154,VALID,0.455469,
2010-05-13, 00:32:05,VALID,997.797,VALID,0,VALID,93.2874,VALID,0,VALID,24.0897,VALID,153,VALID,0.502734,
2010-05-13, 00:33:05,VALID,997.77,VALID,0,VALID,93.2416,VALID,0,VALID,24.0897,VALID,153,VALID,0.498047,
2010-05-13, 00:34:05,VALID,997.749,VALID,0,VALID,93.234,VALID,0,VALID,24.1092,VALID,153,VALID,0.407031,
2010-05-13, 00:35:05,VALID,997.684,VALID,0,VALID,93.2034,VALID,0,VALID,24.0915,VALID,153,VALID,0.416406,
2010-05-13, 00:36:05,VALID,997.69,VALID,0,VALID,93.1958,VALID,0,VALID,24.0897,VALID,153,VALID,0.582422,
2010-05-13, 00:37:05,VALID,997.715,VALID,0,VALID,93.2111,VALID,0,VALID,24.1305,VALID,153,VALID,0.735937,
2010-05-13, 00:38:05,VALID,997.69,VALID,0,VALID,93.2416,VALID,0,VALID,24.1287,VALID,160,VALID,0.945703,
2010-05-13, 00:39:05,VALID,997.657,VALID,0,VALID,93.2263,VALID,0,VALID,24.1696,VALID,160,VALID,0.711328,
2010-05-13, 00:40:05,VALID,997.627,VALID,0,VALID,93.234,VALID,0,VALID,24.1677,VALID,160,VALID,0.417188,
2010-05-13, 00:41:05,VALID,997.617,VALID,0,VALID,93.2111,VALID,0,VALID,24.1677,VALID,160,VALID,0.4625,
2010-05-13, 00:42:05,VALID,997.589,VALID,0,VALID,93.1805,VALID,0,VALID,24.1677,VALID,160,VALID,0.23125,
2010-05-13, 00:43:05,VALID,997.577,VALID,0,VALID,93.1653,VALID,0,VALID,24.1677,VALID,160,VALID,0.0175781,
2010-05-13, 00:44:05,VALID,997.564,VALID,0,VALID,93.1195,VALID,0,VALID,24.1677,VALID,160,VALID,0.289453,
2010-05-13, 00:45:05,VALID,997.535,VALID,0,VALID,93.1119,VALID,0,VALID,24.1872,VALID,160,VALID,0.394922,
2010-05-13, 00:46:05,VALID,997.496,VALID,0,VALID,93.1271,VALID,0.112286,VALID,24.1872,VALID,160,VALID,0.1375,
2010-05-13, 00:47:05,VALID,997.482,VALID,0,VALID,93.1043,VALID,0,VALID,24.1872,VALID,160,VALID,0.226563,
2010-05-13, 00:48:05,VALID,997.474,VALID,0,VALID,93.0966,VALID,0,VALID,24.2067,VALID,160,VALID,0.242969,
2010-05-13, 00:49:05,VALID,997.491,VALID,0,VALID,93.0585,VALID,0,VALID,24.1872,VALID,160,VALID,0.391016,
2010-05-13, 00:50:05,VALID,997.492,VALID,0,VALID,93.028,VALID,0,VALID,24.1872,VALID,160,VALID,0.447266,
2010-05-13, 00:51:05,VALID,997.482,VALID,0,VALID,92.9822,VALID,0.112286,VALID,24.1872,VALID,160,VALID,0.469531,
2010-05-13, 00:52:05,VALID,997.477,VALID,0,VALID,93.0051,VALID,0,VALID,24.1677,VALID,157,VALID,0.663672,
2010-05-13, 00:53:05,VALID,997.455,VALID,0,VALID,93.0432,VALID,0,VALID,24.2067,VALID,157,VALID,0.874609,
2010-05-13, 00:54:05,VALID,997.501,VALID,0,VALID,93.0051,VALID,0,VALID,24.2067,VALID,157,VALID,1.02148,
2010-05-13, 00:55:05,VALID,997.466,VALID,0,VALID,92.9974,VALID,0,VALID,24.2067,VALID,157,VALID,1.11133,
2010-05-13, 00:56:05,VALID,997.465,VALID,0,VALID,92.9593,VALID,0,VALID,24.2476,VALID,156,VALID,1.05117,
2010-05-13, 00:57:05,VALID,997.495,VALID,0,VALID,92.9593,VALID,0,VALID,24.2671,VALID,156,VALID,0.858984,
2010-05-13, 00:58:05,VALID,997.522,VALID,0,VALID,92.9135,VALID,0,VALID,24.2476,VALID,158,VALID,0.623828,
2010-05-13, 00:59:05,VALID,997.512,VALID,0,VALID,92.8906,VALID,0,VALID,24.2476,VALID,160,VALID,0.523047,
2010-05-13, 01:00:05,VALID,997.544,VALID,0,VALID,92.8677,VALID,0.112286,VALID,24.2458,VALID,160,VALID,0.823828,
2010-05-13, 01:01:05,VALID,997.497,VALID,0,VALID,92.8754,VALID,0,VALID,24.2263,VALID,160,VALID,0.778516,
2010-05-13, 01:02:05,VALID,997.518,VALID,0,VALID,92.8601,VALID,0,VALID,24.2263,VALID,160,VALID,0.591406,
2010-05-13, 01:03:05,VALID,997.491,VALID,0,VALID,92.8525,VALID,0.112286,VALID,24.2263,VALID,160,VALID,0.667578,
2010-05-13, 01:04:05,VALID,997.511,VALID,0,VALID,92.8372,VALID,0,VALID,24.2263,VALID,160,VALID,0.512109,
2010-05-13, 01:05:05,VALID,997.537,VALID,0,VALID,92.8067,VALID,0,VALID,24.2263,VALID,160,VALID,0.357031,
2010-05-13, 01:06:05,VALID,997.575,VALID,0,VALID,92.822,VALID,0,VALID,24.2458,VALID,159,VALID,0.133594,
2010-05-13, 01:07:05,VALID,997.564,VALID,0,VALID,92.8372,VALID,0,VALID,24.2671,VALID,159,VALID,0.442969,
2010-05-13, 01:08:05,VALID,997.589,VALID,0,VALID,92.822,VALID,0,VALID,24.2866,VALID,159,VALID,0.633203,
2010-05-13, 01:09:05,VALID,997.601,VALID,0,VALID,92.7838,VALID,0,VALID,24.2653,VALID,159,VALID,0.658594,
2010-05-13, 01:10:05,VALID,997.581,VALID,0,VALID,92.7228,VALID,0,VALID,24.2653,VALID,155,VALID,0.558594,
2010-05-13, 01:11:05,VALID,997.57,VALID,0,VALID,92.6694,VALID,0,VALID,24.2866,VALID,154,VALID,0.457031,
2010-05-13, 01:12:05,VALID,997.584,VALID,0,VALID,92.6617,VALID,0,VALID,24.2653,VALID,154,VALID,0.430469,
2010-05-13, 01:13:05,VALID,997.576,VALID,0,VALID,92.6388,VALID,0,VALID,24.2653,VALID,154,VALID,0.369531,
2010-05-13, 01:14:05,VALID,997.556,VALID,0,VALID,92.6007,VALID,0,VALID,24.2458,VALID,154,VALID,0.144141,
2010-05-13, 01:15:05,VALID,997.553,VALID,0,VALID,92.5854,VALID,0,VALID,24.2458,VALID,154,VALID,0,
2010-05-13, 01:16:05,VALID,997.563,VALID,0,VALID,92.5091,VALID,0,VALID,24.2067,VALID,154,VALID,0,
2010-05-13, 01:17:05,VALID,997.536,VALID,0,VALID,92.4634,VALID,0,VALID,24.1677,VALID,154,VALID,0,
2010-05-13, 01:18:05,VALID,997.532,VALID,0,VALID,92.4481,VALID,0,VALID,24.1482,VALID,154,VALID,0,
2010-05-13, 01:19:05,VALID,997.51,VALID,0,VALID,92.5931,VALID,0,VALID,24.1696,VALID,154,VALID,0,
2010-05-13, 01:20:05,VALID,997.488,VALID,0,VALID,92.6694,VALID,0,VALID,24.1287,VALID,154,VALID,0,
2010-05-13, 01:21:05,VALID,997.496,VALID,0,VALID,92.6999,VALID,0,VALID,24.15,VALID,154,VALID,0,
2010-05-13, 01:22:05,VALID,997.461,VALID,0,VALID,92.7609,VALID,0,VALID,24.1287,VALID,154,VALID,0,
2010-05-13, 01:23:05,VALID,997.447,VALID,0,VALID,92.8448,VALID,0,VALID,24.1482,VALID,154,VALID,0,
2010-05-13, 01:24:05,VALID,997.433,VALID,0,VALID,92.8677,VALID,0,VALID,24.1696,VALID,154,VALID,0,
2010-05-13, 01:25:05,VALID,997.442,VALID,0,VALID,92.883,VALID,0,VALID,24.1482,VALID,154,VALID,0,
2010-05-13, 01:26:05,VALID,997.476,VALID,0,VALID,92.9135,VALID,0,VALID,24.1482,VALID,154,VALID,0,
2010-05-13, 01:27:05,VALID,997.484,VALID,0,VALID,92.9517,VALID,0,VALID,24.1482,VALID,154,VALID,0,
2010-05-13, 01:28:05,VALID,997.493,VALID,0,VALID,92.9364,VALID,0,VALID,24.1677,VALID,154,VALID,0,
2010-05-13, 01:29:05,VALID,997.474,VALID,0,VALID,92.9288,VALID,0,VALID,24.1696,VALID,154,VALID,0,
2010-05-13, 01:30:05,VALID,997.444,VALID,0,VALID,92.9517,VALID,0,VALID,24.1482,VALID,154,VALID,0,
2010-05-13, 01:31:05,VALID,997.483,VALID,0,VALID,92.9593,VALID,0,VALID,24.1482,VALID,154,VALID,0,
2010-05-13, 01:32:05,VALID,997.461,VALID,0,VALID,92.9669,VALID,0,VALID,24.1696,VALID,154,VALID,0,
2010-05-13, 01:33:05,VALID,997.456,VALID,0,VALID,92.9745,VALID,0,VALID,24.1287,VALID,154,VALID,0,
2010-05-13, 01:34:05,VALID,997.492,VALID,0,VALID,92.9974,VALID,0,VALID,24.1482,VALID,154,VALID,0,
2010-05-13, 01:35:05,VALID,997.488,VALID,0,VALID,92.9593,VALID,0,VALID,24.1092,VALID,154,VALID,0,
2010-05-13, 01:36:05,VALID,997.484,VALID,0,VALID,92.9822,VALID,0,VALID,24.1305,VALID,141,VALID,0.537109,
2010-05-13, 01:37:05,VALID,997.479,VALID,0,VALID,92.9974,VALID,0,VALID,24.1305,VALID,117,VALID,0.464453,
2010-05-13, 01:38:05,VALID,997.488,VALID,0,VALID,93.0356,VALID,0,VALID,24.1305,VALID,117,VALID,0.278906,
2010-05-13, 01:39:05,VALID,997.463,VALID,0,VALID,93.0508,VALID,0,VALID,24.1287,VALID,117,VALID,0.292969,
2010-05-13, 01:40:05,VALID,997.456,VALID,0,VALID,93.0814,VALID,0,VALID,24.1092,VALID,117,VALID,0.130859,
2010-05-13, 01:41:05,VALID,997.462,VALID,0,VALID,93.0737,VALID,0,VALID,24.1092,VALID,117,VALID,0,
2010-05-13, 01:42:05,VALID,997.421,VALID,0,VALID,93.0661,VALID,0,VALID,24.1092,VALID,117,VALID,0,
2010-05-13, 01:43:05,VALID,997.439,VALID,0,VALID,93.0585,VALID,0,VALID,24.1092,VALID,117,VALID,0,
2010-05-13, 01:44:05,VALID,997.455,VALID,0,VALID,93.0737,VALID,0,VALID,24.0897,VALID,117,VALID,0.253906,
2010-05-13, 01:45:05,VALID,997.445,VALID,0,VALID,93.089,VALID,0,VALID,24.0897,VALID,117,VALID,0.602734,
2010-05-13, 01:46:05,VALID,997.451,VALID,0,VALID,93.1348,VALID,0,VALID,24.1287,VALID,146,VALID,0.604297,
2010-05-13, 01:47:05,VALID,997.431,VALID,0,VALID,93.1424,VALID,0,VALID,24.15,VALID,147,VALID,0.802734,
2010-05-13, 01:48:05,VALID,997.439,VALID,0,VALID,93.1119,VALID,0,VALID,24.1482,VALID,146,VALID,0.811719,
2010-05-13, 01:49:05,VALID,997.407,VALID,0,VALID,93.0737,VALID,0,VALID,24.1696,VALID,139,VALID,0.682813,
2010-05-13, 01:50:05,VALID,997.417,VALID,0,VALID,93.0661,VALID,0,VALID,24.1696,VALID,138,VALID,0.599219,
2010-05-13, 01:51:05,VALID,997.439,VALID,0,VALID,93.0356,VALID,0,VALID,24.1677,VALID,138,VALID,0.421094,
2010-05-13, 01:52:05,VALID,997.433,VALID,0,VALID,93.0661,VALID,0,VALID,24.1891,VALID,138,VALID,0.235938,
2010-05-13, 01:53:05,VALID,997.415,VALID,0,VALID,93.0432,VALID,0,VALID,24.1696,VALID,139,VALID,0,
2010-05-13, 01:54:05,VALID,997.395,VALID,0,VALID,93.0356,VALID,0,VALID,24.1677,VALID,139,VALID,0,
2010-05-13, 01:55:05,VALID,997.392,VALID,0,VALID,93.028,VALID,0,VALID,24.1482,VALID,139,VALID,0,
2010-05-13, 01:56:05,VALID,997.392,VALID,0,VALID,93.0127,VALID,0,VALID,24.1287,VALID,139,VALID,0,
2010-05-13, 01:57:05,VALID,997.367,VALID,0,VALID,93.028,VALID,0,VALID,24.1287,VALID,139,VALID,0,
2010-05-13, 01:58:05,VALID,997.368,VALID,0,VALID,93.0051,VALID,0,VALID,24.15,VALID,139,VALID,0,
2010-05-13, 01:59:05,VALID,997.349,VALID,0,VALID,93.0051,VALID,0,VALID,24.15,VALID,139,VALID,0,
2010-05-13, 02:00:05,VALID,997.371,VALID,0,VALID,93.0051,VALID,0,VALID,24.1287,VALID,139,VALID,0,
2010-05-13, 02:01:05,VALID,997.376,VALID,0,VALID,93.0508,VALID,0,VALID,24.1287,VALID,139,VALID,0.245703,
2010-05-13, 02:02:05,VALID,997.388,VALID,0,VALID,93.0508,VALID,0,VALID,24.1287,VALID,139,VALID,0.327344,
2010-05-13, 02:03:05,VALID,997.365,VALID,0,VALID,93.089,VALID,0,VALID,24.15,VALID,139,VALID,0.344922,
2010-05-13, 02:04:05,VALID,997.374,VALID,0,VALID,93.1043,VALID,0,VALID,24.1482,VALID,139,VALID,0.317578,
2010-05-13, 02:05:05,VALID,997.384,VALID,0,VALID,93.1348,VALID,0,VALID,24.1677,VALID,139,VALID,0.553516,
2010-05-13, 02:06:05,VALID,997.401,VALID,0,VALID,93.1271,VALID,0,VALID,24.1677,VALID,139,VALID,0.521484,
2010-05-13, 02:07:05,VALID,997.402,VALID,0,VALID,93.1271,VALID,0,VALID,24.2086,VALID,145,VALID,0.602344,
2010-05-13, 02:08:05,VALID,997.401,VALID,0,VALID,93.1119,VALID,0,VALID,24.2067,VALID,154,VALID,0.521484,
2010-05-13, 02:09:05,VALID,997.429,VALID,0,VALID,93.1195,VALID,0,VALID,24.2476,VALID,154,VALID,0.389062,
2010-05-13, 02:10:05,VALID,997.425,VALID,0,VALID,93.0814,VALID,0,VALID,24.2458,VALID,154,VALID,0.432031,
2010-05-13, 02:11:05,VALID,997.429,VALID,0,VALID,93.0508,VALID,0,VALID,24.2458,VALID,151,VALID,0.846875,
2010-05-13, 02:12:05,VALID,997.408,VALID,0,VALID,93.0127,VALID,0,VALID,24.2653,VALID,151,VALID,0.29375,
2010-05-13, 02:13:05,VALID,997.383,VALID,0,VALID,92.9364,VALID,0,VALID,24.2671,VALID,151,VALID,0.174219,
2010-05-13, 02:14:05,VALID,997.379,VALID,0,VALID,92.8983,VALID,0,VALID,24.2653,VALID,151,VALID,0.0796875,
2010-05-13, 02:15:05,VALID,997.33,VALID,0,VALID,92.8601,VALID,0,VALID,24.2458,VALID,151,VALID,0.15625,
2010-05-13, 02:16:05,VALID,997.33,VALID,0,VALID,92.8525,VALID,0,VALID,24.2458,VALID,151,VALID,0.0476562,
2010-05-13, 02:17:05,VALID,997.273,VALID,0,VALID,92.8296,VALID,0,VALID,24.2671,VALID,151,VALID,0.2,
2010-05-13, 02:18:05,VALID,997.288,VALID,0,VALID,92.7838,VALID,0,VALID,24.2476,VALID,143,VALID,0.416797,
2010-05-13, 02:19:05,VALID,997.273,VALID,0,VALID,92.7609,VALID,0,VALID,24.2067,VALID,60,VALID,0.544922,
2010-05-13, 02:20:05,VALID,997.26,VALID,0,VALID,92.7609,VALID,0,VALID,24.2281,VALID,30,VALID,0.584375,
2010-05-13, 02:21:05,VALID,997.197,VALID,0,VALID,92.7457,VALID,0,VALID,24.2281,VALID,20,VALID,0.814844,
2010-05-13, 02:22:05,VALID,997.19,VALID,0,VALID,92.7075,VALID,0,VALID,24.1872,VALID,20,VALID,0.721875,
2010-05-13, 02:23:05,VALID,997.161,VALID,0,VALID,92.6846,VALID,0,VALID,24.1891,VALID,20,VALID,0.519531,
2010-05-13, 02:24:05,VALID,997.143,VALID,0,VALID,92.738,VALID,0,VALID,24.1677,VALID,20,VALID,0.507422,
2010-05-13, 02:25:05,VALID,997.122,VALID,0,VALID,92.7838,VALID,0,VALID,24.1891,VALID,20,VALID,0.446875,
2010-05-13, 02:26:05,VALID,997.117,VALID,0,VALID,92.8296,VALID,0,VALID,24.1696,VALID,20,VALID,0.312891,
2010-05-13, 02:27:05,VALID,997.098,VALID,0,VALID,92.8372,VALID,0,VALID,24.1696,VALID,20,VALID,0.272266,
2010-05-13, 02:28:05,VALID,997.098,VALID,0,VALID,92.8525,VALID,0,VALID,24.1696,VALID,20,VALID,0.0683594,
2010-05-13, 02:29:05,VALID,997.09,VALID,0,VALID,92.8677,VALID,0,VALID,24.1482,VALID,20,VALID,0,
2010-05-13, 02:30:05,VALID,997.108,VALID,0,VALID,92.9059,VALID,0,VALID,24.1677,VALID,20,VALID,0,
2010-05-13, 02:31:05,VALID,997.117,VALID,0,VALID,92.8906,VALID,0,VALID,24.2086,VALID,20,VALID,0,
2010-05-13, 02:32:05,VALID,997.132,VALID,0,VALID,92.883,VALID,0,VALID,24.1677,VALID,20,VALID,0,
2010-05-13, 02:33:05,VALID,997.145,VALID,0,VALID,92.8983,VALID,0,VALID,24.1891,VALID,20,VALID,0,
2010-05-13, 02:34:05,VALID,997.161,VALID,0,VALID,92.9211,VALID,0,VALID,24.2086,VALID,20,VALID,0,
2010-05-13, 02:35:05,VALID,997.187,VALID,0,VALID,92.8983,VALID,0,VALID,24.1872,VALID,20,VALID,0.56875,
2010-05-13, 02:36:05,VALID,997.169,VALID,0,VALID,92.8525,VALID,0,VALID,24.1482,VALID,20,VALID,0.751172,
2010-05-13, 02:37:05,VALID,997.207,VALID,0,VALID,92.822,VALID,0,VALID,24.1696,VALID,20,VALID,0.880859,
2010-05-13, 02:38:05,VALID,997.232,VALID,0,VALID,92.7685,VALID,0,VALID,24.1092,VALID,20,VALID,0.950781,
2010-05-13, 02:39:05,VALID,997.233,VALID,0,VALID,92.7075,VALID,0,VALID,24.0897,VALID,22,VALID,0.96875,
2010-05-13, 02:40:05,VALID,997.272,VALID,0,VALID,92.7533,VALID,0,VALID,24.0915,VALID,27,VALID,1.0543,
2010-05-13, 02:41:05,VALID,997.279,VALID,0,VALID,92.8372,VALID,0,VALID,24.0701,VALID,40,VALID,0.879297,
2010-05-13, 02:42:05,VALID,997.313,VALID,0,VALID,92.8906,VALID,0,VALID,24.0897,VALID,38,VALID,1.06328,
2010-05-13, 02:43:05,VALID,997.362,VALID,0,VALID,92.9288,VALID,0,VALID,24.111,VALID,32,VALID,0.914063,
2010-05-13, 02:44:05,VALID,997.369,VALID,0,VALID,92.944,VALID,0,VALID,24.0915,VALID,30,VALID,0.574609,
2010-05-13, 02:45:04,VALID,997.421,VALID,0,VALID,92.9593,VALID,0,VALID,24.0701,VALID,30,VALID,0.538281,
2010-05-13, 02:46:04,VALID,997.44,VALID,0,VALID,92.9822,VALID,0,VALID,24.072,VALID,29,VALID,0.415625,
2010-05-13, 02:47:04,VALID,997.466,VALID,0,VALID,92.9974,VALID,0,VALID,24.0701,VALID,29,VALID,0.451953,
2010-05-13, 02:48:04,VALID,997.467,VALID,0,VALID,93.028,VALID,0,VALID,24.0701,VALID,29,VALID,0.198047,
2010-05-13, 02:49:04,VALID,997.483,VALID,0,VALID,93.0661,VALID,0,VALID,24.072,VALID,29,VALID,0.182812,
2010-05-13, 02:50:04,VALID,997.475,VALID,0,VALID,93.0737,VALID,0,VALID,24.072,VALID,29,VALID,0.198047,
2010-05-13, 02:51:04,VALID,997.476,VALID,0,VALID,93.0814,VALID,0,VALID,24.0701,VALID,29,VALID,0.090625,
2010-05-13, 02:52:04,VALID,997.478,VALID,0,VALID,93.1043,VALID,0,VALID,24.0915,VALID,29,VALID,0,
2010-05-13, 02:53:04,VALID,997.449,VALID,0,VALID,93.1119,VALID,0,VALID,24.072,VALID,29,VALID,0,
2010-05-13, 02:54:04,VALID,997.402,VALID,0,VALID,93.0966,VALID,0,VALID,24.072,VALID,29,VALID,0.178125,
2010-05-13, 02:55:04,VALID,997.399,VALID,0,VALID,93.1271,VALID,0,VALID,24.0701,VALID,29,VALID,0.264844,
2010-05-13, 02:56:04,VALID,997.367,VALID,0,VALID,93.1043,VALID,0,VALID,24.072,VALID,29,VALID,0.271094,
2010-05-13, 02:57:04,VALID,997.349,VALID,0,VALID,93.1577,VALID,0,VALID,24.072,VALID,29,VALID,0.398828,
2010-05-13, 02:58:04,VALID,997.351,VALID,0,VALID,93.1653,VALID,0,VALID,24.0915,VALID,29,VALID,0.148047,
2010-05-13, 02:59:04,VALID,997.357,VALID,0,VALID,93.2034,VALID,0,VALID,24.1092,VALID,267,VALID,0,
2010-05-13, 03:00:04,VALID,997.359,VALID,0,VALID,93.2263,VALID,0,VALID,24.1305,VALID,267,VALID,0.0257812,
2010-05-13, 03:01:04,VALID,997.324,VALID,0,VALID,93.2263,VALID,0,VALID,24.15,VALID,251,VALID,0.483203,
2010-05-13, 03:02:04,VALID,997.317,VALID,0,VALID,93.2034,VALID,0,VALID,24.1696,VALID,226,VALID,0.711328,
2010-05-13, 03:03:04,VALID,997.351,VALID,0,VALID,93.2111,VALID,0,VALID,24.1677,VALID,230,VALID,1.10625,
2010-05-13, 03:04:04,VALID,997.328,VALID,0,VALID,93.1805,VALID,0,VALID,24.2281,VALID,238,VALID,0.802734,
2010-05-13, 03:05:04,VALID,997.361,VALID,0,VALID,93.15,VALID,0,VALID,24.2476,VALID,221,VALID,0.890234,
2010-05-13, 03:06:04,VALID,997.344,VALID,0,VALID,93.1348,VALID,0,VALID,24.2671,VALID,220,VALID,0.901953,
2010-05-13, 03:07:04,VALID,997.36,VALID,0,VALID,93.0585,VALID,0,VALID,24.2653,VALID,238,VALID,0.583203,
2010-05-13, 03:08:04,VALID,997.351,VALID,0,VALID,93.0203,VALID,0,VALID,24.3062,VALID,232,VALID,0.635938,
2010-05-13, 03:09:04,VALID,997.329,VALID,0,VALID,92.9517,VALID,0,VALID,24.3257,VALID,232,VALID,0.505078,
2010-05-13, 03:10:04,VALID,997.331,VALID,0,VALID,92.8906,VALID,0,VALID,24.3647,VALID,236,VALID,0.680469,
2010-05-13, 03:11:04,VALID,997.32,VALID,0,VALID,92.7914,VALID,0,VALID,24.3647,VALID,250,VALID,0.448047,
2010-05-13, 03:12:04,VALID,997.309,VALID,0,VALID,92.7075,VALID,0,VALID,24.3647,VALID,286,VALID,0.482812,
2010-05-13, 03:13:04,VALID,997.274,VALID,0,VALID,92.6236,VALID,0,VALID,24.3647,VALID,312,VALID,0.548828,
2010-05-13, 03:14:04,VALID,997.273,VALID,0,VALID,92.6007,VALID,0,VALID,24.3257,VALID,335,VALID,0.729688,
2010-05-13, 03:15:04,VALID,997.269,VALID,0,VALID,92.5702,VALID,0,VALID,24.3062,VALID,335,VALID,0.592578,
2010-05-13, 03:16:04,VALID,997.261,VALID,0,VALID,92.6007,VALID,0,VALID,24.3062,VALID,335,VALID,0.526953,
2010-05-13, 03:17:04,VALID,997.252,VALID,0,VALID,92.6617,VALID,0,VALID,24.2671,VALID,335,VALID,0.328125,
2010-05-13, 03:18:04,VALID,997.231,VALID,0,VALID,92.6999,VALID,0,VALID,24.2476,VALID,335,VALID,0.325391,
2010-05-13, 03:19:04,VALID,997.229,VALID,0,VALID,92.7151,VALID,0,VALID,24.2476,VALID,335,VALID,0.264062,
2010-05-13, 03:20:04,VALID,997.244,VALID,0,VALID,92.7685,VALID,0,VALID,24.2476,VALID,335,VALID,0.0648438,
2010-05-13, 03:21:04,VALID,997.293,VALID,0,VALID,92.7762,VALID,0,VALID,24.2281,VALID,335,VALID,0,
2010-05-13, 03:22:04,VALID,997.306,VALID,0,VALID,92.822,VALID,0,VALID,24.2281,VALID,271,VALID,0.560938,
2010-05-13, 03:23:04,VALID,997.31,VALID,0,VALID,92.8601,VALID,0,VALID,24.2476,VALID,192,VALID,1.18008,
2010-05-13, 03:24:04,VALID,997.306,VALID,0,VALID,92.9288,VALID,0,VALID,24.2671,VALID,192,VALID,1.01602,
2010-05-13, 03:25:04,VALID,997.331,VALID,0,VALID,92.9364,VALID,0,VALID,24.2866,VALID,186,VALID,1.05781,
2010-05-13, 03:26:04,VALID,997.312,VALID,0,VALID,92.9059,VALID,0,VALID,24.3257,VALID,177,VALID,1.41562,
2010-05-13, 03:27:04,VALID,997.328,VALID,0,VALID,92.8143,VALID,0,VALID,24.3433,VALID,178,VALID,1.03828,
2010-05-13, 03:28:04,VALID,997.362,VALID,0,VALID,92.6846,VALID,0,VALID,24.4037,VALID,180,VALID,1.13555,
2010-05-13, 03:29:04,VALID,997.375,VALID,0,VALID,92.4939,VALID,0,VALID,24.4037,VALID,172,VALID,1.16367,
2010-05-13, 03:30:04,VALID,997.357,VALID,0,VALID,92.3337,VALID,0,VALID,24.4428,VALID,166,VALID,1.0418,
2010-05-13, 03:31:04,VALID,997.331,VALID,0,VALID,92.1887,VALID,0,VALID,24.4428,VALID,161,VALID,0.866406,
2010-05-13, 03:32:04,VALID,997.322,VALID,0,VALID,92.0361,VALID,0,VALID,24.4428,VALID,163,VALID,0.705078,
2010-05-13, 03:33:04,VALID,997.311,VALID,0,VALID,91.998,VALID,0,VALID,24.4428,VALID,163,VALID,0.470313,
2010-05-13, 03:34:04,VALID,997.262,VALID,0,VALID,91.9751,VALID,0,VALID,24.4428,VALID,163,VALID,0.0972656,
2010-05-13, 03:35:04,VALID,997.284,VALID,0,VALID,91.9751,VALID,0,VALID,24.4428,VALID,163,VALID,0.0121094,
2010-05-13, 03:36:04,VALID,997.267,VALID,0,VALID,91.9522,VALID,0,VALID,24.4214,VALID,163,VALID,0.256641,
2010-05-13, 03:37:04,VALID,997.305,VALID,0,VALID,91.9217,VALID,0,VALID,24.4446,VALID,159,VALID,0.446094,
2010-05-13, 03:38:04,VALID,997.322,VALID,0,VALID,91.8835,VALID,0,VALID,24.4233,VALID,140,VALID,0.548828,
2010-05-13, 03:39:04,VALID,997.325,VALID,0,VALID,91.8225,VALID,0,VALID,24.4037,VALID,140,VALID,0.511719,
2010-05-13, 03:40:04,VALID,997.329,VALID,0,VALID,91.8225,VALID,0,VALID,24.4037,VALID,140,VALID,0.346484,
2010-05-13, 03:41:04,VALID,997.312,VALID,0,VALID,91.853,VALID,0,VALID,24.4037,VALID,140,VALID,0.386719,
2010-05-13, 03:42:04,VALID,997.311,VALID,0,VALID,91.9217,VALID,0,VALID,24.3842,VALID,140,VALID,0.497656,
2010-05-13, 03:43:04,VALID,997.366,VALID,0,VALID,91.9598,VALID,0,VALID,24.3842,VALID,140,VALID,0.601563,
2010-05-13, 03:44:04,VALID,997.357,VALID,0,VALID,92.0132,VALID,0,VALID,24.3842,VALID,59,VALID,0.930078,
2010-05-13, 03:45:04,VALID,997.401,VALID,0,VALID,92.0819,VALID,0,VALID,24.3647,VALID,59,VALID,0.989453,
2010-05-13, 03:46:04,VALID,997.411,VALID,0,VALID,92.1811,VALID,0,VALID,24.3452,VALID,53,VALID,1.35703,
2010-05-13, 03:47:04,VALID,997.402,VALID,0,VALID,92.3031,VALID,0,VALID,24.3238,VALID,44,VALID,1.57422,